Location: Baia Mare
(47.6567°N, 23.5850°E)
Time: 17:48:06
(UTC+03:00)

ISS - Pass Details

Date: 10 July 2018
Orbit: 402 x 408 km, 51.6° (Epoch: 20 July)

Event Time Altitude Azimuth Distance (km) Brightness Sun altitude
Exits shadow 03:56:16 19° 249° (WSW) 1,046 -2.2 -12.8°
Maximum altitude 03:58:30 83° 336° (NNW) 415 -3.8 -12.6°
Drops below altitude 10° 04:01:49 10° 66° (ENE) 1,474 0.0 -12.3°
Sets 04:03:55 0° 67° (ENE) 2,338 1.1 -12.1°
